Le nostre stazioni meteo in Italia

Pubblicità
Il mio iltempo24.it
Catania/Sigonella, Italia (16459): Temperatura & dewpoint: 14.04.2018 20:00:00 - 20.04.2018 20:00:00 (CEST)Catania/Sigonella, Italia (16459): velocità del vento: 14.04.2018 20:00:00 - 20.04.2018 20:00:00 (CEST)Catania/Sigonella, Italia (16459): direzione del vento: 14.04.2018 20:00:00 - 20.04.2018 20:00:00 (CEST)Catania/Sigonella, Italia (16459): reduced air pressure: 14.04.2018 20:00:00 - 20.04.2018 20:00:00 (CEST)Catania/Sigonella, Italia (16459): visibility: 14.04.2018 20:00:00 - 20.04.2018 20:00:00 (CEST)
Data & Tempo tt [°C] td [°C] ff [km/h] ff [kn] dd ppp [hPa] vv [km]
20.04.2018 20:00:00 19,0 16,0 4 2 ONO 1018,5 11
20.04.2018 19:00:00 21,0 15,0 5 3 OSO - 10
20.04.2018 18:00:00 22,0 13,0 13 7 ENE - 10
20.04.2018 17:00:00 24,8 12,4 24 13 E 1017,4 12
20.04.2018 16:00:00 27,0 10,0 15 8 ESE - 10
20.04.2018 15:00:00 27,0 11,0 5 3 SE - 10
20.04.2018 14:00:00 27,2 12,1 5 3 SO 1019,3 11
20.04.2018 13:00:00 26,0 12,0 11 6 E - 10
20.04.2018 12:00:00 25,0 13,0 9 5 E - 10
20.04.2018 11:00:00 23,4 14,7 5 3 S 1020,7 9
20.04.2018 10:00:00 20,0 17,0 9 5 OSO - 7
20.04.2018 09:00:00 17,0 16,0 8 4 O - 6
20.04.2018 08:00:00 13,0 13,0 5 3 O 1021,2 5
20.04.2018 07:00:00 11,0 11,0 8 4 O - 6
20.04.2018 06:00:00 11,0 11,0 8 4 O - 6
20.04.2018 05:00:00 12,0 12,0 8 4 OSO 1021,1 10
20.04.2018 04:00:00 13,0 13,0 9 5 O - 10
20.04.2018 03:00:00 13,0 13,0 9 5 O - 10
20.04.2018 02:00:00 12,6 12,6 9 5 O 1022,5 10
20.04.2018 01:00:00 13,0 13,0 9 5 OSO - 10
20.04.2018 00:00:00 14,0 14,0 9 5 O - 10
19.04.2018 23:00:00 15,2 15,2 5 3 ONO 1022,9 10
19.04.2018 22:00:00 16,0 16,0 4 2 ENE - 10
19.04.2018 21:00:00 17,0 16,0 5 3 ENE - 10
19.04.2018 20:00:00 17,6 17,3 11 6 E 1021,4 10
19.04.2018 19:00:00 19,0 17,0 13 7 E - 10
19.04.2018 18:00:00 20,0 17,0 22 12 E - 10
19.04.2018 17:00:00 21,2 16,4 24 13 E 1021,8 10
19.04.2018 16:00:00 22,0 16,0 26 14 E - 8
19.04.2018 15:00:00 23,0 15,0 29 16 E - 10
19.04.2018 14:00:00 23,2 16,3 22 12 E 1022,8 7
19.04.2018 13:00:00 22,0 16,0 22 12 E - 7
19.04.2018 12:00:00 21,0 15,0 22 12 E - 7
19.04.2018 11:00:00 21,2 16,6 15 8 E 1022,9 7
19.04.2018 10:00:00 19,0 17,0 9 5 SSE - 6
19.04.2018 09:00:00 15,0 15,0 4 2 O - 6
19.04.2018 08:00:00 13,8 13,5 9 5 O 1023,4 6
19.04.2018 07:00:00 14,0 14,0 8 4 ONO - 6
19.04.2018 06:00:00 14,0 14,0 8 4 O - 7
19.04.2018 05:00:00 13,8 13,8 9 5 ONO 1022,8 6
19.04.2018 04:00:00 13,0 13,0 8 4 OSO - 5
19.04.2018 03:00:00 14,0 14,0 8 4 O - 5
19.04.2018 02:00:00 14,2 14,2 8 4 OSO 1023,5 5
19.04.2018 01:00:00 14,0 14,0 8 4 O - 4,8
19.04.2018 00:00:00 15,0 15,0 4 2 N - 6
18.04.2018 23:00:00 15,0 14,8 2 1 N 1023,5 6
18.04.2018 22:00:00 15,0 15,0 4 2 O - 6
18.04.2018 21:00:00 15,0 15,0 9 5 SE - 6
18.04.2018 20:00:00 16,4 16,4 9 5 ESE 1022,5 4,0
18.04.2018 19:00:00 18,0 18,0 13 7 E - 4,5
18.04.2018 18:00:00 19,0 17,0 16 9 E - 4,0
18.04.2018 17:00:00 19,0 18,2 18 10 E 1022,3 4,0
18.04.2018 16:00:00 19,0 19,0 22 12 E - 4,0
18.04.2018 15:00:00 19,0 19,0 21 11 E - 4,0
18.04.2018 14:00:00 19,6 19,0 26 14 E 1022,5 4,5
18.04.2018 13:00:00 19,0 18,0 29 16 E - 4,5
18.04.2018 12:00:00 19,0 18,0 22 12 E - 5
18.04.2018 11:00:00 18,6 18,6 8 4 NE 1022,7 6
18.04.2018 10:00:00 15,0 15,0 5 3 OSO - 6
18.04.2018 09:00:00 15,0 15,0 9 5 OSO - 5
18.04.2018 08:00:00 14,4 14,4 8 4 NNO 1022,3 4,0
18.04.2018 07:00:00 15,0 15,0 8 4 O - 5
18.04.2018 06:00:00 14,0 14,0 5 3 O - 5
18.04.2018 05:00:00 14,0 14,0 5 3 ESE 1020,6 7
18.04.2018 04:00:00 14,0 14,0 4 2 OSO - 10
18.04.2018 03:00:00 15,0 15,0 8 4 ONO - 10
18.04.2018 02:00:00 15,8 15,8 5 3 N 1020,6 10
18.04.2018 01:00:00 16,0 16,0 2 1 E - 10
18.04.2018 00:00:00 16,0 16,0 2 1 S - 10
17.04.2018 23:00:00 16,0 15,8 5 3 SE 1020,6 10
17.04.2018 22:00:00 17,0 17,0 9 5 E - 10
17.04.2018 21:00:00 18,0 18,0 13 7 ENE - 10
17.04.2018 20:00:00 18,2 17,4 13 7 ENE 1018,7 10
17.04.2018 19:00:00 19,0 11,0 15 8 E - 10
17.04.2018 18:00:00 21,0 11,0 22 12 E - 10
17.04.2018 17:00:00 22,2 11,9 24 13 E 1018,3 10
17.04.2018 16:00:00 23,0 12,0 26 14 E - 10
17.04.2018 15:00:00 23,0 13,0 28 15 E - 10
17.04.2018 14:00:00 24,2 12,5 24 13 E 1018,5 10
17.04.2018 13:00:00 25,0 10,0 9 5 E - 10
17.04.2018 12:00:00 23,0 14,0 9 5 SE - 10
17.04.2018 11:00:00 22,2 12,7 4 2 NE 1019,3 10
17.04.2018 10:00:00 19,0 9,0 4 2 NE - 10
17.04.2018 09:00:00 14,0 9,0 2 1 O - 10
17.04.2018 08:00:00 12,8 10,2 4 2 O 1018,4 15
17.04.2018 07:00:00 9,0 9,0 8 4 O - 10
17.04.2018 06:00:00 9,0 9,0 5 3 OSO - 10
17.04.2018 05:00:00 12,4 11,1 8 4 ONO 1017,4 13
17.04.2018 04:00:00 12,0 11,0 8 4 OSO - 10
17.04.2018 03:00:00 14,0 10,0 5 3 ONO - 10
17.04.2018 02:00:00 14,0 9,8 16 9 O 1017,4 13
17.04.2018 01:00:00 14,0 9,0 15 8 O - 10
17.04.2018 00:00:00 14,0 9,0 11 6 O - 10
16.04.2018 23:00:00 16,6 9,3 18 10 O 1016,6 12
16.04.2018 22:00:00 15,0 15,0 5 3 SO - 9
16.04.2018 21:00:00 15,0 15,0 5 3 S - 7
16.04.2018 20:00:00 18,0 18,0 5 3 NE 1014,5 6
16.04.2018 19:00:00 20,0 16,0 11 6 E - 6
16.04.2018 18:00:00 20,0 14,0 18 10 E - 5
16.04.2018 17:00:00 22,0 14,9 16 9 E 1012,6 5
16.04.2018 16:00:00 22,0 15,0 22 12 E - 5
16.04.2018 15:00:00 22,0 17,0 26 14 E - 5
16.04.2018 14:00:00 25,8 9,6 16 9 O 1012,4 6
16.04.2018 13:00:00 25,0 10,0 18 10 ONO - 6
16.04.2018 12:00:00 24,0 11,0 15 8 ONO - 4,0
16.04.2018 11:00:00 22,2 13,6 11 6 O 1012,1 4,0
16.04.2018 10:00:00 19,0 14,0 9 5 ONO - 4,0
16.04.2018 09:00:00 17,0 15,0 13 7 ONO - 4,0
16.04.2018 08:00:00 14,8 14,8 9 5 NO 1011,4 4,0
16.04.2018 07:00:00 14,0 14,0 8 4 NO - 3,5
16.04.2018 06:00:00 14,0 14,0 8 4 NO - 2,5
16.04.2018 05:00:00 14,6 14,6 15 8 O 1008,9 2,5
16.04.2018 04:00:00 15,0 15,0 13 7 ONO - 2,5
16.04.2018 03:00:00 16,0 16,0 11 6 S - 2,5
16.04.2018 02:00:00 16,4 16,4 5 3 O 1009,8 2,5
16.04.2018 01:00:00 16,0 16,0 11 6 O - 2,5
16.04.2018 00:00:00 16,0 16,0 15 8 OSO - 2,5
15.04.2018 23:00:00 17,2 17,2 18 10 OSO 1009,0 3,5
15.04.2018 22:00:00 17,0 17,0 16 9 O - 3,5
15.04.2018 21:00:00 17,0 17,0 11 6 OSO - 3,5
15.04.2018 20:00:00 18,0 17,7 8 4 NE 1006,3 4,0
15.04.2018 19:00:00 19,0 19,0 11 6 E - 5
15.04.2018 18:00:00 21,0 17,0 16 9 E - 5
15.04.2018 17:00:00 22,0 16,1 21 11 ENE 1005,3 5
15.04.2018 16:00:00 23,0 17,0 21 11 E - 5
15.04.2018 15:00:00 23,0 16,0 22 12 E - 5
15.04.2018 14:00:00 23,0 16,1 28 15 E 1006,5 5
15.04.2018 13:00:00 23,0 16,0 28 15 E - 6
15.04.2018 12:00:00 23,0 15,0 34 18 ENE - 6
15.04.2018 11:00:00 22,2 15,5 31 17 E 1007,4 6
15.04.2018 10:00:00 22,0 16,0 29 16 ENE - 6
15.04.2018 09:00:00 21,0 15,0 26 14 ENE - 6
15.04.2018 08:00:00 18,8 14,3 24 13 ENE 1007,4 6
15.04.2018 07:00:00 17,0 16,0 16 9 ENE - 6
15.04.2018 06:00:00 17,0 15,0 9 5 ENE - 7
15.04.2018 05:00:00 18,6 16,0 9 5 E 1007,4 10
15.04.2018 04:00:00 19,0 13,0 28 15 ENE - 10
15.04.2018 03:00:00 20,0 12,0 31 17 ENE - 10
15.04.2018 02:00:00 20,0 11,0 35 19 ENE 1008,9 10
15.04.2018 01:00:00 20,0 11,0 37 20 ENE - 10
15.04.2018 00:00:00 20,0 10,0 39 21 ENE - 10
14.04.2018 23:00:00 20,0 9,3 42 23 E 1010,1 10
14.04.2018 22:00:00 20,0 10,0 37 20 E - 10
14.04.2018 21:00:00 20,0 8,0 42 23 E - 10
14.04.2018 20:00:00 20,2 7,6 41 22 E 1009,5 10

tt = Temperatura
td = dewpoint
ff = velocità del vento
dd = direzione del vento
ppp = reduced air pressure
vv = visibility

Stazioni seguenti

WeatherPro
AMSI
MeteoEarth